Location: ??????????
(54.4061°N, 22.6114°E)
Time: 08:13:08
(UTC+00:00)

Daily predictions for brighter satellites

Satellite Brightness Start Highest point End
(mag) Time Altitude Azimuth Time Altitude Azimuth Time Altitude Azimuth
Envisat 3.2 15:42:48 10° SE 15:47:43 52° ENE 15:52:40 10° N
Cosmos 2297 Rocket 4.3 15:45:25 10° NW 15:48:43 16° N 15:52:03 10° NNE
Okean O Rocket 4.0 15:46:09 10° SSW 15:50:05 30° W 15:54:02 10° NNW
Cosmos 2082 Rocket 2.3 15:45:32 10° NNW 15:51:15 66° NE 15:56:55 10° SE
Cosmos 1898 Rocket 4.3 15:46:51 10° NNW 15:51:37 33° NE 15:56:23 10° ESE
Unknown 3.8 15:47:33 10° W 15:51:43 74° S 15:55:51 10° E
Cosmos 1328 3.7 15:47:45 10° N 15:51:45 75° ENE 15:55:41 10° SSE
COSMO-SKYMED 1 3.6 15:49:37 10° NE 15:53:13 24° E 15:56:46 10° SSE
Unknown 3.8 15:49:16 10° W 15:53:25 74° S 15:57:34 10° E
Unknown 3.7 15:50:51 10° W 15:55:00 74° S 15:59:08 10° E
Unknown 3.7 15:52:27 10° W 15:56:36 74° S 16:00:44 10° E
Unknown 3.7 15:54:11 10° W 15:58:20 74° S 16:02:29 10° E
Cosmos 1844 Rocket 3.0 15:53:13 10° SW 15:58:52 72° NW 16:04:31 10° NNE
Cosmos 1953 Rocket 4.3 15:54:38 10° NNW 15:58:57 59° W 16:03:13 10° S
H-2A R/B 3.0 15:55:33 10° S 15:59:28 78° WSW 16:03:26 10° NNW
Cosmos 1356 3.6 15:56:12 10° S 15:59:33 51° E 16:02:56 10° NNE
Unknown 3.7 15:55:41 10° W 15:59:50 74° S 16:03:58 10° E
Cosmos 2058 4.0 15:58:01 10° N 16:01:30 24° ENE 16:04:58 10° ESE
Unknown 3.7 15:58:57 10° W 16:03:06 74° S 16:07:11 10° E
H-2A R/B 3.8 16:00:30 10° ENE 16:03:24 15° NE 16:06:20 10° NNE
CZ-2D R/B 4.4 16:00:38 10° ESE 16:03:45 23° ENE 16:06:54 10° N
Unknown 3.7 16:00:39 10° W 16:04:47 75° S 16:08:48 11° E
Unknown 3.7 16:02:28 10° W 16:06:37 75° S 16:10:35 11° E
Unknown 3.7 16:02:51 10° W 16:06:55 73° S 16:10:50 11° E
Cosmos 1076 Rocket 4.1 16:03:24 10° N 16:07:26 35° ENE 16:11:26 10° SE
Unknown 4.0 16:04:21 10° W 16:08:00 53° SSW 16:11:39 10° ESE
Unknown 3.7 16:04:00 10° W 16:08:09 75° S 16:12:02 12° E
Unknown 3.7 16:05:38 10° W 16:09:47 75° S 16:13:36 12° E
BREEZE-M DEB (TANK) 4.2 16:07:14 10° W 16:11:15 52° SSW 16:20:36 10° ESE
Cosmos 1606 Rocket 4.1 16:07:55 10° SSW 16:12:15 64° WNW 16:16:35 10° N
Cosmos 1934 Rocket 4.3 16:06:14 10° NNW 16:12:36 80° W 16:18:57 10° S
Unknown 3.7 16:08:58 10° W 16:13:07 75° S 16:16:48 13° E
NOSS 3-2 (A) 4.3 16:08:09 10° S 16:13:08 29° ESE 16:18:38 10° ENE
Cosmos 1605 Rocket 3.9 16:07:16 10° N 16:13:30 76° ENE 16:19:37 10° SSE
ATLAS 5 CENTAUR R/B 2.5 16:10:12 10° WSW 16:14:36 49° NNW 16:19:41 10° NE
Unknown 3.7 16:10:36 10° W 16:14:45 75° S 16:18:23 13° E
Okean-O 3.0 16:11:08 10° S 16:15:34 69° WSW 16:20:02 10° NNW
Unknown 3.7 16:12:15 10° W 16:16:24 75° S 16:19:58 14° E
Cosmos 1939 Rocket 3.8 16:13:49 10° SE 16:17:20 29° ENE 16:20:55 10° N
Unknown 3.7 16:13:58 10° W 16:18:06 75° S 16:21:36 14° E
Cosmos 1726 2.0 16:14:50 10° S 16:18:29 83° E 16:22:10 10° NNE
Unknown 3.7 16:15:19 10° W 16:19:25 74° S 16:22:50 14° E
Cosmos 2084 4.2 16:16:33 10° WSW 16:20:57 52° NNW 16:25:17 10° NE
Cosmos 1703 3.8 16:17:17 10° NNW 16:21:12 62° W 16:25:04 10° S
Unknown 3.7 16:17:17 10° W 16:21:26 74° S 16:24:48 15° E
Unknown 3.7 16:18:10 10° W 16:22:18 74° S 16:25:40 15° E
Unknown 3.7 16:18:59 10° W 16:23:07 74° S 16:26:27 15° E
Cosmos 2151 4.2 16:19:46 10° NNE 16:23:11 22° ENE 16:25:51 13° ESE
Unknown 3.7 16:20:49 10° W 16:24:58 74° S 16:28:14 16° E
Unknown 3.7 16:23:57 10° W 16:28:06 74° S 16:31:13 17° E
Cosmos 2173 Rocket 4.3 16:23:31 10° N 16:29:32 45° ENE 16:35:24 10° SE
Ariane Rocket 3.4 16:25:43 10° SE 16:30:27 41° ENE 16:35:14 10° N
Meteor 2-10 3.9 16:25:43 10° SSW 16:30:45 89° ESE 16:35:51 10° NNE
Unknown 3.7 16:27:16 10° W 16:31:24 73° S 16:34:24 18° ESE
Cosmos 1727 Rocket 4.1 16:26:52 10° SSE 16:32:46 50° E 16:38:42 10° NNE
Unknown 3.7 16:28:53 10° W 16:33:01 73° S 16:35:57 19° ESE
Cosmos 1812 Rocket 3.9 16:29:30 10° SSE 16:33:41 42° E 16:37:55 10° NNE
Cosmos 2228 4.2 16:29:48 10° SSW 16:34:00 47° WNW 16:38:12 10° N
ASTEX 1 3.4 16:29:24 10° N 16:34:24 84° E 16:39:23 10° S
Unknown 3.7 16:30:35 10° W 16:34:44 73° S 16:37:35 19° ESE
BREEZE M DEB (TANK) 4.2 16:34:06 10° WSW 16:35:52 17° SSW 16:38:39 10° SSE
Cosmos 2278 Rocket 2.2 16:30:18 10° SSW 16:35:55 68° ESE 16:41:36 10° NE
Meteor 1-16 Rocket 4.4 16:30:53 10° SSW 16:36:19 70° WNW 16:41:40 10° N
Unknown 3.7 16:32:11 10° W 16:36:19 73° S 16:39:07 20° ESE
Cosmos 1908 3.2 16:33:49 10° S 16:37:43 89° SE 16:41:38 10° NNE
Cosmos 990 Rocket 4.1 16:32:36 10° NNW 16:37:45 57° ENE 16:42:54 10° SE
Resurs 01 Rocket 3.7 16:38:17 11° NE 16:38:17 11° NE 16:39:30 10° NNE
Lacrosse 5 3.4 16:34:35 10° WNW 16:39:09 35° SW 16:43:42 10° SSE
Cosmos 921 Rocket 4.2 16:35:39 10° SW 16:39:58 46° WNW 16:44:15 10° NNE
NOSS 3-2 (C) 4.2 16:35:11 10° S 16:40:11 30° ESE 16:44:15 16° ENE
Cosmos 1937 Rocket 3.7 16:35:28 10° NNW 16:40:29 49° NE 16:44:59 13° SE
HJ-1C 4.3 16:39:48 23° ESE 16:40:58 29° ENE 16:43:55 10° N
SKYMED 2 3.5 16:37:14 10° NNE 16:41:35 63° ESE 16:45:53 10° S
Cosmos 2297 4.4 16:37:29 10° SSE 16:42:24 31° ESE 16:47:20 10° NE
CSL-04 Rocket 3.7 16:36:57 10° SSE 16:42:28 86° ENE 16:47:57 10° NNW
Unknown 3.7 16:38:53 10° W 16:43:01 72° S 16:45:34 22° ESE
Cosmos 1802 Rocket 4.3 16:37:38 10° N 16:43:52 48° ENE 16:50:01 10° SE
YAOGAN 6 2.7 16:40:43 10° S 16:44:20 75° WSW 16:47:57 10° NNW
Unknown 3.7 16:40:33 10° W 16:44:42 71° S 16:47:10 23° ESE
YAOGAN 1 2.5 16:40:27 10° SSE 16:44:47 87° ENE 16:49:10 10° NNW
Unknown 3.7 16:42:12 10° W 16:46:21 71° S 16:48:46 24° ESE
Unknown 3.7 16:43:51 10° W 16:47:58 71° S 16:50:20 24° ESE
ARGOS 4.2 16:46:19 20° E 16:48:18 25° NE 16:52:40 10° N
Cosmos 2263 Rocket 4.3 16:45:16 10° WNW 16:49:21 20° NNW 16:53:27 10° NNE
Unknown 3.7 16:45:32 10° W 16:49:40 70° S 16:51:57 25° ESE
Unknown 4.2 16:47:20 10° W 16:51:02 46° SSW 16:53:25 20° SE
CZ-4 R/B 1.9 16:47:54 10° S 16:52:06 65° WSW 16:56:20 10° NNW
Cosmos 1825 4.1 16:49:46 10° NNE 16:51:04 15° NE 16:51:04 15° NE
Unknown 3.7 16:48:50 10° W 16:52:58 69° S 16:55:08 27° ESE
Cosmos 1725 Rocket 4.4 16:48:01 10° N 16:53:55 40° ENE 16:59:06 13° SE
Starlink (trailer) 3.7 16:50:30 10° W 16:54:38 69° S 16:56:43 28° ESE
EO 1 Delta rocket 4.1 16:51:34 10° S 16:56:16 83° WSW 17:01:51 10° NNW
Unknown 3.7 16:52:11 10° W 16:56:18 68° S 16:58:21 28° ESE
USA 116 3.3 16:54:00 10° NNE 16:57:11 53° ESE 17:00:37 10° S
Unknown 3.7 16:53:53 10° W 16:58:01 68° S 16:59:59 29° ESE
ATLAS CENTAUR R/B 2.5 16:53:57 10° NW 16:58:14 34° NNE 16:59:50 26° ENE
Cosmos 1833 Rocket 4.3 16:54:45 10° NW 16:59:52 37° WSW 17:04:57 10° S
Cosmos 2100 Rocket 3.9 16:54:09 10° N 17:00:23 73° ENE 17:06:31 10° SSE
SJ-6B 4.0 17:01:06 23° NE 17:01:06 23° NE 17:03:36 10° N
Cosmos 1892 3.0 16:58:00 10° N 17:01:39 41° ENE 17:02:35 34° ESE
ATLAS 3B R/B 3.3 16:57:06 10° S 17:02:49 31° ESE 17:05:11 25° E
Unknown 3.8 16:58:50 10° W 17:02:57 66° SSW 17:04:45 32° ESE
Unknown 3.8 17:00:28 10° W 17:04:35 66° SSW 17:06:18 33° ESE
NOAA 11 4.1 16:59:19 10° SSE 17:04:45 82° ENE 17:10:13 10° NNW
Cosmos-2242 3.6 17:01:18 10° SSE 17:05:13 34° E 17:09:07 10° NNE
Cosmos 44 3.8 17:01:15 10° S 17:05:41 36° ESE 17:06:48 32° E
Unknown 3.8 17:02:08 10° W 17:06:15 66° SSW 17:07:55 34° ESE
Cosmos 1763 Rocket 4.2 17:02:23 10° SSE 17:06:56 30° ESE 17:07:18 29° E
Unknown 3.8 17:03:44 10° W 17:07:53 65° SSW 17:09:31 34° ESE
CZ-2C R/B 4.2 17:07:08 25° ENE 17:08:15 27° NE 17:12:56 10° N
CENTAUR R/B 3.1 17:03:05 10° S 17:08:30 34° ESE 17:11:09 25° ENE
Unknown 3.8 17:05:26 10° W 17:09:33 64° SSW 17:11:06 36° SE
Unknown 3.8 17:07:12 10° W 17:11:19 63° SSW 17:12:48 36° SE
SL-27 R/B 2.3 17:08:03 10° NNW 17:11:20 53° ENE 17:11:27 53° ENE
Cosmos 2298 Rocket 4.4 17:07:06 10° NNW 17:12:14 46° NE 17:14:08 32° ESE
Unknown 3.8 17:10:28 10° W 17:14:34 63° SSW 17:15:55 39° SE
Unknown 3.8 17:10:31 10° W 17:14:38 62° SSW 17:15:59 38° SE
Cosmos 2016 Rocket 4.0 17:08:43 10° N 17:14:59 63° ENE 17:21:16 10° SSE
Unknown 3.8 17:12:06 10° W 17:16:13 62° SSW 17:17:30 40° SE
SJ 16-02 1.2 17:12:35 10° NNW 17:17:01 81° ENE 17:19:25 26° SSE
Unknown 3.8 17:15:21 10° W 17:19:27 62° SSW 17:20:36 42° SE
Unknown 4.4 17:16:19 10° W 17:19:58 39° SSW 17:21:17 29° SSE
Unknown 3.9 17:18:45 10° W 17:22:51 60° SSW 17:23:53 44° SE
Cosmos 1300 2.7 17:20:01 10° SSW 17:23:49 83° W 17:27:41 10° N
SL-08 R/B 4.4 17:18:22 10° N 17:24:27 62° ENE 17:29:12 17° SSE
Unknown 3.9 17:20:24 10° W 17:24:30 59° SSW 17:25:28 45° SE
Meteor 2-3 Rocket 4.3 17:19:36 10° N 17:24:55 36° ENE 17:25:40 35° E
Abrixas rocket 3.6 17:22:17 10° WSW 17:24:36 26° SSW 17:24:36 26° SSW
Unknown 3.9 17:22:04 10° W 17:26:10 58° SSW 17:27:05 45° SE
SPOT 3 Rocket 3.8 17:25:19 38° ESE 17:26:47 49° ENE 17:31:48 10° N
Unknown 3.9 17:23:46 10° W 17:27:51 58° SSW 17:28:43 46° SSE
COSMO-SKYMED 1 3.5 17:25:24 10° N 17:29:38 50° WNW 17:33:50 10° SW
Cosmos 2227 Rocket 4.0 17:26:52 10° NNW 17:30:34 17° NNE 17:32:20 15° NE
Unknown 3.9 17:27:05 10° W 17:31:09 56° SSW 17:31:53 48° SSE
Cosmos 1408 3.8 17:27:47 10° N 17:29:58 29° NNE 17:29:58 29° NNE
Unknown 3.9 17:28:48 10° W 17:32:52 55° SSW 17:33:32 48° SSE
Cosmos 1898 Rocket 4.1 17:28:50 10° NNW 17:34:02 59° WSW 17:39:14 10° S
Unknown 3.9 17:30:22 10° W 17:34:26 55° SSW 17:35:03 49° SSE
Cosmos 2082 Rocket 4.1 17:30:06 10° NW 17:35:00 30° WSW 17:39:50 10° SSW
Cosmos 2297 Rocket 4.0 17:31:22 10° NNW 17:35:09 18° NNE 17:36:39 16° NE
Unknown 3.9 17:31:58 10° W 17:36:02 55° SSW 17:36:35 50° SSE
Unknown 3.9 17:33:43 10° W 17:37:46 54° SSW 17:38:16 50° S
CZ-2D R/B 4.3 17:34:11 10° S 17:37:54 45° W 17:41:41 10° NNW
Cosmos 2058 3.9 17:34:36 10° NNW 17:38:40 47° W 17:42:42 10° SSW
Unknown 3.9 17:35:13 10° W 17:39:16 55° SSW 17:39:41 52° S
MOS 1 4.2 17:34:56 16° SSE 17:39:35 88° ENE 17:45:17 10° NNW
USA 238 DEB 3.6 17:34:43 10° SW 17:41:30 89° SE 17:46:09 23° NE
USA 238 3.6 17:34:50 10° SW 17:41:36 88° SE 17:46:13 23° NE
H-2A R/B 2.2 17:40:42 48° ESE 17:41:46 56° ENE 17:47:07 10° N
Unknown 3.9 17:38:29 10° W 17:42:33 54° SSW 17:42:50 52° S
Unknown 4.0 17:40:10 10° W 17:44:13 53° SSW 17:44:27 52° S
Cosmos 1459 Rocket 4.3 17:38:04 10° NNW 17:44:14 66° W 17:50:28 10° S
Cosmos 1766 Rocket 3.5 17:41:06 10° NNW 17:45:27 80° W 17:47:01 39° S
Unknown 4.3 17:42:02 10° W 17:45:53 43° SSW 17:46:07 42° SSW
Unknown 4.0 17:42:01 10° W 17:46:03 50° SSW 17:46:14 50° S
Unknown 4.0 17:43:32 10° W 17:47:35 51° SSW 17:47:41 51° SSW
Unknown 4.1 17:45:11 10° W 17:49:12 51° SSW 17:49:16 51° SSW
Cosmos 1939 Rocket 4.3 17:48:23 10° SSW 17:52:10 38° W 17:56:02 10° NNW
Unknown 4.1 17:48:30 10° W 17:52:28 49° SSW 17:52:28 49° SSW
Timation 2 Rocket 4.2 17:48:19 10° NNW 17:54:04 46° NE 17:54:41 44° ENE
Unknown 4.2 17:50:09 10° W 17:54:02 49° SSW 17:54:02 49° SSW
Cosmos 1408 Rocket 3.4 17:50:45 10° N 17:54:55 82° N 17:54:55 82° N
Unknown 4.2 17:51:48 10° W 17:55:37 48° SSW 17:55:37 48° SSW
Unknown 4.3 17:53:30 10° W 17:57:16 47° SW 17:57:16 47° SW
Cosmos 2061 Rocket 4.2 17:51:41 10° NNW 17:57:55 70° W 18:04:04 10° S
Cosmos 1125 Rocket 3.8 17:53:01 10° NNW 17:57:57 51° NE 17:57:57 51° NE
Unknown 4.4 17:54:41 10° W 17:58:19 42° SW 17:58:19 42° SW
ATLAS 5 CENTAUR R/B 3.3 17:55:57 10° WNW 18:00:19 31° N 18:01:48 27° NNE
Unknown 4.4 17:56:50 10° W 18:00:27 44° SW 18:00:27 44° SW
Cosmos 2151 3.6 17:56:35 10° NNW 18:00:49 55° W 18:02:29 33° SSW
Unknown 4.4 17:57:43 10° W 18:01:18 43° SW 18:01:18 43° SW
NOSS 3-2 (A) 3.5 17:57:15 10° SW 18:03:16 83° NW 18:06:32 33° NE
Ariane Rocket 4.3 18:04:41 10° SSW 18:09:28 39° W 18:14:17 10° NNW
ADEOS Rocket 3.4 18:02:25 10° NNE 18:10:02 59° E 18:13:06 36° SSE
Cosmos 972 Rocket 4.2 18:05:51 10° NNW 18:10:58 64° NE 18:10:58 64° NE
Cosmos 468 Rocket 4.0 18:08:28 10° SSW 18:13:45 79° WNW 18:15:41 40° NNE
Resurs 01 Rocket 3.1 18:15:51 28° N 18:15:51 28° N 18:18:08 10° N
Cosmos 1818 4.3 18:09:04 10° NW 18:14:09 41° NNE 18:14:09 41° NNE
Cosmos 1238 Rocket 3.8 18:12:04 10° N 18:18:45 78° ENE 18:19:20 72° SE
Cosmos 2278 Rocket 3.7 18:15:18 10° WSW 18:20:28 34° NW 18:25:39 10° NNE
Cosmos 2219 4.5 18:17:59 10° NNW 18:22:14 28° NNE 18:22:14 28° NNE
Cosmos 2150 Rocket 4.2 18:18:52 10° NNW 18:24:17 68° WSW 18:24:42 65° SW
Cosmos 2297 4.0 18:20:34 10° SW 18:26:15 65° NW 18:29:18 28° NNE
ARGOS 3.2 18:27:50 74° SW 18:28:05 76° WSW 18:33:34 10° NNW
Cosmos 1825 4.3 18:24:27 10° NNW 18:25:54 22° NNW 18:25:54 22° NNW
BREEZE-M DEB (TANK) 4.4 18:24:58 10° WSW 18:28:17 24° SW 18:28:17 24° SW
NOSS 3-2 (C) 3.5 18:24:21 10° SW 18:30:24 83° NW 18:31:44 60° NE
Cosmos 2123 Rocket 4.1 18:27:59 10° SSW 18:34:16 74° WNW 18:40:32 10° N
Cosmos 2263 Rocket 4.4 18:32:29 10° NNW 18:35:35 15° N 18:37:09 13° NNE
Cosmos 2233 Rocket 4.1 18:29:46 10° NNW 18:36:04 74° W 18:37:21 57° SSW
ATLAS CENTAUR R/B 2.8 18:33:03 10° NW 18:36:02 39° WNW 18:36:02 39° WNW
CZ-2C R/B 3.5 18:48:12 70° WNW 18:48:12 70° WNW 18:53:23 10° NNW
Cosmos 1763 Rocket 4.3 18:43:15 10° SW 18:47:27 49° W 18:47:27 49° W
ATLAS 3B R/B 2.6 18:46:13 10° SW 18:52:29 78° WSW 18:52:29 78° WSW
SJ 16-02 3.9 18:52:22 10° WNW 18:55:00 16° W 18:56:27 14° WSW
CENTAUR R/B 2.7 18:52:14 10° SW 18:58:23 78° WNW 18:58:23 78° WNW
Terra 4.4 19:02:32 12° N 19:02:32 12° N 19:03:01 10° N
Cosmos 2227 Rocket 3.8 19:11:03 10° NNW 19:14:09 27° N 19:14:09 27° N
Cosmos 2297 Rocket 3.8 19:15:27 10° NNW 19:18:26 28° N 19:18:26 28° N
H-2A R/B 3.7 19:21:20 30° W 19:21:30 30° W 19:26:18 10° NNW
USA 238 DEB 4.5 19:26:34 10° W 19:33:09 46° NNW 19:33:35 46° N
USA 238 4.5 19:26:40 10° W 19:33:15 46° NNW 19:33:39 46° N
ATLAS 5 CENTAUR R/B 4.0 19:41:08 10° NW 19:43:20 24° NW 19:43:20 24° NW
ADEOS Rocket 4.4 19:48:08 10° N 19:55:18 44° WNW 19:59:59 20° WSW
